Location: Glencliff
(36.1226°N, 86.7183°W)
Time: 05:07:34
(UTC+00:00)

Delta 2 Rocket - Pass Details

Date: 25 August 2019
Orbit: 415 x 811 km, 35.6° (Epoch: 22 September)

Event Time Altitude Azimuth Distance (km) Brightness Sun altitude
Rises 00:48:40 0° 230° (SW) 2,550 7.2 -5.3°
Reaches altitude 10° 00:50:53 10° 220° (SW) 1,730 6.2 -5.7°
Maximum altitude 00:54:29 33° 155° (SSE) 940 4.2 -6.4°
Drops below altitude 10° 00:58:33 10° 91° (E) 1,958 5.5 -7.2°
Enters shadow 00:59:13 - 88° (E) 2,199 5.8 -7.3°
